Regional Weather Roundup
Issued by NWS Little Rock, AR

Home | Current Version | Previous Version | Graphics & Text | Print | Product List | Glossary On
Versions: 1 2 3 4 5 6 7 8 9 10 11 12 13 14 15 16 17 18 19 20 21 22 23 24 25 26 27 28 29 30 31 32 33 34 35 36 37 38 39 40 41 42 43 44 45 46 47 48 49 50
000
ASUS44 KLZK 200005
RWRLZK

WEATHER ROUNDUP FOR ARKANSAS
NATIONAL WEATHER SERVICE LITTLE ROCK AR
600 PM CST MON FEB 19 2018

NOTE: "FAIR" INDICATES FEW OR NO CLOUDS BELOW 12,000 FEET WITH NO
SIGNIFICANT WEATHER AND/OR OBSTRUCTIONS TO VISIBILITY.

ARZ001-003-010-029-200100-
NORTHWEST ARKANSAS

CITY           SKY/WX    TMP DP  RH WIND       PRES   REMARKS
FAYETTEVILLE   CLOUDY    66  61  84 S16G24    29.85R
6HR MIN TEMP:  62; 6HR MAX TEMP:  66; 6HR PCP:  0.01;

FORT SMITH     LGT RAIN  65  63  93 N5        29.84F
6HR MIN TEMP:  65; 6HR MAX TEMP:  71; 6HR PCP:  0.03;

HARRISON       CLOUDY    65  58  78 S17       29.88F
6HR MIN TEMP:  64; 6HR MAX TEMP:  68; 6HR PCP: TRACE;

BENTONVILLE    LGT RAIN  65  60  84 S18G24    29.84S
6HR MIN TEMP:  63; 6HR MAX TEMP:  66; 6HR PCP:  0.01;

ROGERS         LGT RAIN  66  59  78 S20       29.84R
6HR MIN TEMP:  63; 6HR MAX TEMP:  66; 6HR PCP: TRACE;

SILOAM SPGS    LGT RAIN  66  60  81 S14G25    29.82S
6HR MIN TEMP:  63; 6HR MAX TEMP:  67;

SPRINGDALE     CLOUDY    66  61  82 S13G23    29.85S
$$

ARZ004-005-016-200100-
NORTH CENTRAL ARKANSAS

CITY           SKY/WX    TMP DP  RH WIND       PRES   REMARKS
BATESVILLE     CLOUDY    70  59  68 S6        29.98R
6HR MIN TEMP:  69; 6HR MAX TEMP:  74;

FLIPPIN        CLOUDY    71  57  61 S13G21    29.89S
6HR MIN TEMP:  67; 6HR MAX TEMP:  71;

MTN HOME       CLOUDY    70  57  63 S12G22    29.90
6HR MIN TEMP:  65; 6HR MAX TEMP:  70;

$$

ARZ040-041-200100-
WEST CENTRAL ARKANSAS

CITY           SKY/WX    TMP DP  RH WIND       PRES   REMARKS
MENA           NOT AVBL
MOUNT IDA      CLOUDY    72  59  63 S8        29.90S
6HR MIN TEMP:  69; 6HR MAX TEMP:  76;

$$

ARZ009-017-025-026-028-200100-
NORTHEAST ARKANSAS

CITY           SKY/WX    TMP DP  RH WIND       PRES   REMARKS
JONESBORO      FAIR      70  62  76 S12       29.99R
6HR MIN TEMP:  68; 6HR MAX TEMP:  74;

NEWPORT          N/A     67  62  84 S7        29.99R
6HR MIN TEMP:  67; 6HR MAX TEMP:  72;

WALNUT RIDGE   FAIR      68  61  78 S15       29.97R
6HR MIN TEMP:  68; 6HR MAX TEMP:  72;

BLYTHEVILLE    CLOUDY    69  60  73 S7        30.02R
6HR MIN TEMP:  68; 6HR MAX TEMP:  75;

$$

ARZ022-023-033-042-044-200100-
CENTRAL ARKANSAS

CITY           SKY/WX    TMP DP  RH WIND       PRES   REMARKS
LITTLE ROCK    CLOUDY    70  61  73 SE7       29.96R
6HR MIN TEMP:  70; 6HR MAX TEMP:  77;

N LITTLE ROCK    N/A     70  62  75 CALM      29.94R
6HR MIN TEMP:  69; 6HR MAX TEMP:  75;

JACKSONVILLE   CLOUDY    72  61  70 S7        29.95R
6HR MIN TEMP:  71; 6HR MAX TEMP:  76;

SEARCY         FAIR      68  63  84 S8        29.97
6HR MIN TEMP:  68; 6HR MAX TEMP:  76;

HOT SPRINGS    CLOUDY    73  60  63 E5        29.94S
6HR MIN TEMP:  72; 6HR MAX TEMP:  76;

RUSSELLVILLE   CLOUDY    72  57  59 SE6       29.90S
6HR MIN TEMP:  69; 6HR MAX TEMP:  75;

CLINTON        CLOUDY    70  57  64 SE8       29.94S
$$

ARZ036-200100-
EAST ARKANSAS

CITY           SKY/WX    TMP DP  RH WIND       PRES   REMARKS
WEST MEMPHIS   FAIR      69  60  73 S9        30.01R
6HR MIN TEMP:  69; 6HR MAX TEMP:  74;

$$

ARZ050-053-066-070-073-200100-
SOUTHWEST ARKANSAS

CITY           SKY/WX    TMP DP  RH WIND       PRES   REMARKS
ARKADELPHIA    FAIR      71  58  63 S5        29.94S
6HR MIN TEMP:  71; 6HR MAX TEMP:  78;

CAMDEN         FAIR      75  54  46 S7        29.95R
TEXARKANA      MOCLDY    74  55  51 S10       29.92R
6HR MIN TEMP:  72; 6HR MAX TEMP:  77;

EL DORADO      FAIR      75  59  57 S10       29.96S
6HR MIN TEMP:  72; 6HR MAX TEMP:  79;

DE QUEEN       CLOUDY    75  60  59 S10       29.87R
6HR MIN TEMP:  72; 6HR MAX TEMP:  75;

$$

ARZ056-057-069-200100-
SOUTHEAST ARKANSAS

CITY           SKY/WX    TMP DP  RH WIND       PRES   REMARKS
PINE BLUFF     FAIR      72  59  63 S8        29.97S
6HR MIN TEMP:  72; 6HR MAX TEMP:  77;

STUTTGART      FAIR      73  61  65 S13       29.98S
6HR MIN TEMP:  71; 6HR MAX TEMP:  76;

MONTICELLO     FAIR      75  59  57 S6        29.99R
6HR MIN TEMP:  72; 6HR MAX TEMP:  80;


$$





USA.gov is the U.S. government's official web portal to all federal, state and local government web resources and services.